Date String (YYYY-MM-DD hh:mm:ss) UTC,Instrument flags,absolute air pressure of the measurement (hPa),sample flow rate (lpm),inlet stack bypass flow (lpm),air temperature of the measurement (°C),ambient temperature measured by the external sensor (°C),aerosol sample conditioner tube jacket temperature (°C),OPC LED temperature (°C),internal box temperature (°C),relative humidity of the measurement (%),span deviation,mass concentration of particles derived from Lorenz-Mie calculation of OPC scattering (μg/m³),mass concentration of particles derived from Lorenz-Mie calculation of OPC scattering (μg/m³),mass concentration of particles derived from Lorenz-Mie calculation of OPC scattering (μg/m³)
DateTimeUTC,F1_M11,P_M11,Q1_M11,Q2_M11,T1_M11,T2_M11,T3_M11,T4_M11,T5_M11,U1_M11,ZSPAN_M11,X0_M11,X2_M11,X1_M11
2023-07-28 22:00:00,SystemResetWarning,0835.8,5.01,000.00,031.0,026.0,000.0,038.3,030.8,33.8,0000.0,0020.71,0007.08,0005.02
2023-07-28 22:01:00,SystemResetWarning,0835.8,4.99,000.00,031.0,026.4,000.0,038.4,030.9,33.8,0000.0,0020.79,0007.05,0005.01
2023-07-28 22:02:00,SystemResetWarning,0835.8,5.00,000.00,031.0,026.8,000.0,038.5,031.0,33.8,0000.0,0020.09,0007.02,0005.00
2023-07-28 22:03:00,SystemResetWarning,0835.9,5.01,000.00,031.1,027.2,000.0,038.6,031.1,33.6,0000.0,0019.10,0007.02,0004.98
2023-07-28 22:04:00,SystemResetWarning,0836.0,5.01,000.00,031.1,027.2,000.0,038.6,031.1,32.5,0000.0,0020.05,0007.04,0004.97
2023-07-28 22:05:00,SystemResetWarning,0836.1,4.98,000.00,031.1,025.8,000.0,038.5,030.9,33.4,0000.0,0020.24,0006.99,0004.95
2023-07-28 22:06:00,SystemResetWarning,0836.1,5.01,000.00,031.0,025.0,000.0,038.4,030.7,34.0,0000.0,0020.13,0007.00,0004.93
2023-07-28 22:07:00,SystemResetWarning,0836.2,5.01,000.00,030.9,025.1,000.0,038.5,030.6,34.0,0000.0,0019.54,0006.97,0004.91
2023-07-28 22:08:00,SystemResetWarning,0836.2,5.00,000.00,030.7,025.4,000.0,038.5,030.5,33.8,0000.0,0019.50,0007.00,0004.89
2023-07-28 22:09:00,SystemResetWarning,0836.3,4.98,000.00,030.7,025.9,000.0,038.6,030.6,35.3,0000.0,0019.70,0006.90,0004.85
2023-07-28 22:10:00,SystemResetWarning,0836.4,5.03,000.00,030.8,026.4,000.0,038.6,030.8,36.3,0000.0,0020.51,0006.84,0004.82
2023-07-28 22:11:00,SystemResetWarning,0836.4,4.98,000.00,031.1,026.8,000.0,038.6,031.0,36.4,0000.0,0020.25,0006.77,0004.80
2023-07-28 22:12:00,SystemResetWarning,0836.4,5.01,000.00,031.4,027.2,000.0,038.6,031.3,35.5,0000.0,0019.74,0006.71,0004.78
2023-07-28 22:13:00,SystemResetWarning,0836.5,5.00,000.00,031.8,027.2,000.0,038.7,031.4,32.4,0000.0,0020.80,0006.73,0004.75
2023-07-28 22:14:00,SystemResetWarning,0836.4,4.99,000.00,032.0,025.9,000.0,038.6,031.3,31.9,0000.0,0023.25,0006.78,0004.74
2023-07-28 22:15:00,SystemResetWarning,0836.5,5.02,000.00,032.1,025.1,000.0,038.6,031.1,32.5,0000.0,0023.86,0006.83,0004.71
2023-07-28 22:16:00,SystemResetWarning,0836.3,4.99,000.00,032.0,025.1,000.0,038.7,030.9,32.5,0000.0,0024.11,0006.80,0004.69
2023-07-28 22:17:00,SystemResetWarning,0836.3,5.00,000.00,031.9,025.5,000.0,038.8,030.8,32.5,0000.0,0024.90,0006.72,0004.66
2023-07-28 22:18:00,SystemResetWarning,0836.2,5.01,000.00,031.8,025.9,000.0,038.9,030.9,32.6,0000.0,0026.43,0006.68,0004.63
2023-07-28 22:19:00,SystemResetWarning,0836.1,5.01,000.00,031.8,026.4,000.0,039.1,031.0,32.2,0000.0,0027.49,0006.71,0004.62
2023-07-28 22:20:00,SystemResetWarning,0836.1,5.00,000.00,031.8,026.8,000.0,039.1,031.1,32.3,0000.0,0027.09,0006.72,0004.61
2023-07-28 22:21:00,SystemResetWarning,0836.1,5.00,000.00,031.7,027.1,000.0,039.2,031.2,33.4,0000.0,0026.23,0006.70,0004.58
2023-07-28 22:22:00,SystemResetWarning,0836.3,5.01,000.00,031.7,027.4,000.0,039.3,031.3,34.1,0000.0,0026.06,0006.67,0004.54
2023-07-28 22:23:00,SystemResetWarning,0836.4,5.00,000.00,031.7,027.7,000.0,039.3,031.4,34.5,0000.0,0027.34,0006.73,0004.53
2023-07-28 22:24:00,SystemResetWarning,0836.5,4.99,000.00,031.7,027.9,000.0,039.4,031.4,34.6,0000.0,0026.70,0006.68,0004.51
2023-07-28 22:25:00,SystemResetWarning,0836.6,4.99,000.00,031.7,027.3,000.0,039.3,031.4,34.5,0000.0,0025.99,0006.67,0004.49
2023-07-28 22:26:00,SystemResetWarning,0836.6,5.01,000.00,031.7,026.1,000.0,039.2,031.3,34.1,0000.0,0026.02,0006.61,0004.49
2023-07-28 22:27:00,SystemResetWarning,0836.7,5.00,000.00,031.6,025.8,000.0,039.1,031.1,33.1,0000.0,0026.23,0006.63,0004.49
2023-07-28 22:28:00,SystemResetWarning,0836.8,5.01,000.00,031.4,026.0,000.0,039.2,031.0,33.7,0000.0,0026.04,0006.65,0004.49
2023-07-28 22:29:00,SystemResetWarning,0836.9,5.01,000.00,031.3,026.3,000.0,039.2,031.0,34.6,0000.0,0025.99,0006.65,0004.49
2023-07-28 22:30:00,SystemResetWarning,0836.8,4.97,000.00,031.3,026.7,000.0,039.2,031.2,35.5,0000.0,0024.93,0006.58,0004.47
2023-07-28 22:31:00,SystemResetWarning,0836.7,5.02,000.00,031.4,027.1,000.0,039.3,031.3,35.9,0000.0,0024.05,0006.55,0004.46
2023-07-28 22:32:00,SystemResetWarning,0836.8,5.00,000.00,031.7,027.4,000.0,039.3,031.5,35.2,0000.0,0024.07,0006.53,0004.46
2023-07-28 22:33:00,SystemResetWarning,0836.8,4.97,000.00,032.0,027.6,000.0,039.3,031.7,34.5,0000.0,0024.32,0006.51,0004.48
2023-07-28 22:34:00,SystemResetWarning,0836.8,5.00,000.00,032.1,027.2,000.0,039.3,031.7,31.9,0000.0,0024.57,0006.68,0004.52
2023-07-28 22:35:00,SystemResetWarning,0836.8,5.00,000.00,032.2,025.7,000.0,039.2,031.4,29.1,0000.0,0026.64,0006.93,0004.57
2023-07-28 22:36:00,SystemResetWarning,0836.7,5.00,000.00,032.1,024.9,000.0,039.1,031.2,28.0,0000.0,0026.33,0006.94,0004.60
2023-07-28 22:37:00,SystemResetWarning,0836.7,5.00,000.00,032.0,025.0,000.0,039.2,031.0,29.7,0000.0,0024.98,0006.92,0004.61
2023-07-28 22:38:00,SystemResetWarning,0836.7,5.01,000.00,031.9,025.4,000.0,039.3,030.9,30.1,0000.0,0024.31,0006.89,0004.61
2023-07-28 22:39:00,SystemResetWarning,0836.7,5.00,000.00,031.8,025.9,000.0,039.3,031.0,28.2,0000.0,0023.61,0006.94,0004.62
2023-07-28 22:40:00,SystemResetWarning,0836.8,4.99,000.00,031.7,026.4,000.0,039.4,031.1,28.4,0000.0,0022.45,0007.07,0004.65
2023-07-28 22:41:00,SystemResetWarning,0836.9,5.00,000.00,031.7,026.8,000.0,039.4,031.2,29.1,0000.0,0022.98,0007.14,0004.69
2023-07-28 22:42:00,SystemResetWarning,0837.0,5.01,000.00,031.6,027.1,000.0,039.4,031.3,29.4,0000.0,0023.61,0007.32,0004.76
2023-07-28 22:43:00,SystemResetWarning,0837.0,5.00,000.00,031.6,027.4,000.0,039.5,031.4,29.5,0000.0,0023.72,0007.49,0004.82
2023-07-28 22:44:00,SystemResetWarning,0837.0,5.00,000.00,031.6,027.6,000.0,039.5,031.5,28.9,0000.0,0023.55,0007.59,0004.84
2023-07-28 22:45:00,SystemResetWarning,0837.1,4.97,000.00,031.6,026.7,000.0,039.4,031.4,28.5,0000.0,0022.26,0007.52,0004.84
2023-07-28 22:46:00,SystemResetWarning,0837.2,5.01,000.00,031.5,025.7,000.0,039.2,031.2,28.0,0000.0,0021.08,0007.45,0004.82
2023-07-28 22:47:00,SystemResetWarning,0837.2,5.01,000.00,031.4,025.6,000.0,039.2,031.1,28.0,0000.0,0020.60,0007.58,0004.84
2023-07-28 22:48:00,SystemResetWarning,0837.2,5.00,000.00,031.3,025.9,000.0,039.2,031.0,28.5,0000.0,0021.45,0007.83,0004.89
2023-07-28 22:49:00,SystemResetWarning,0837.2,4.99,000.00,031.2,026.3,000.0,039.2,031.1,29.6,0000.0,0022.09,0007.99,0004.94
2023-07-28 22:50:00,SystemResetWarning,0837.2,5.00,000.00,031.1,026.7,000.0,039.2,031.2,31.6,0000.0,0022.12,0008.04,0004.95
2023-07-28 22:51:00,SystemResetWarning,0837.2,5.01,000.00,031.1,027.0,000.0,039.2,031.2,32.8,0000.0,0022.04,0008.03,0004.94
2023-07-28 22:52:00,SystemResetWarning,0837.2,5.01,000.00,031.1,027.4,000.0,039.2,031.3,33.9,0000.0,0020.93,0007.98,0004.88
2023-07-28 22:53:00,SystemResetWarning,0837.1,4.99,000.00,031.0,027.6,000.0,039.2,031.4,33.8,0000.0,0020.51,0007.80,0004.78
2023-07-28 22:54:00,SystemResetWarning,0837.0,4.99,000.00,031.0,026.8,000.0,039.1,031.3,32.8,0000.0,0020.50,0007.56,0004.69
2023-07-28 22:55:00,SystemResetWarning,0837.0,5.00,000.00,031.0,025.2,000.0,038.9,031.1,32.5,0000.0,0020.04,0007.41,0004.63
2023-07-28 22:56:00,SystemResetWarning,0836.9,5.00,000.00,030.9,024.8,000.0,038.8,030.9,33.0,0000.0,0019.53,0007.18,0004.55
2023-07-28 22:57:00,SystemResetWarning,0837.0,5.00,000.00,030.7,025.0,000.0,038.8,030.6,33.6,0000.0,0017.97,0006.86,0004.46
2023-07-28 22:58:00,SystemResetWarning,0837.0,5.01,000.00,030.5,025.4,000.0,038.8,030.7,33.2,0000.0,0017.07,0006.58,0004.38
2023-07-28 22:59:00,SystemResetWarning,0837.0,5.00,000.00,030.5,025.9,000.0,038.8,030.8,33.7,0000.0,0016.05,0006.30,0004.29
